Kremmling, CO

1:27 PM MDT on July 24, 2017 (GMT -0600)
Kremmling

Weather History for K20V - November, 2013

Change the Weather History Date:

Tuesday, November 12, 2013

  Actual Average Record
Temperature  
Mean Temperature 35 °F -  
Max Temperature 53 °F - 64 °F (2016)
Min Temperature 17 °F - -2 °F (2014)
Degree Days  
Heating Degree Days 30    
Month to date heating degree days  
Cooling Degree Days 0    
Month to date cooling degree days  
Moisture  
Dew Point 19 °F    
Average Humidity 66    
Maximum Humidity 93    
Minimum Humidity 21    
Precipitation  
Precipitation 0.00 in - 0.17 in (2005)
Sea Level Pressure  
Sea Level Pressure 30.60 in    
Wind  
Wind Speed 1 mph (WNW)    
Max Wind Speed 6 mph    
Max Gust Speed -    
Visibility 10 miles    
Events      
T = Trace of Precipitation, MM = Missing Value Source: NWS Daily Summary

Daily Weather History Graph

Daily Weather History Graph

Search for Another Location

Airport or City:

Trip Planner

Search our weather history database for the weather conditions in past years. The results will help you decide how hot, cold, wet, or windy it might be!

Date:

Astronomy

Nov. 12, 2013 Rise Set
Actual Time 6:47 AM MST 4:51 PM MST
Civil Twilight 6:18 AM MST 5:20 PM MST
Nautical Twilight 5:46 AM MST 5:52 PM MST
Astronomical Twilight 5:14 AM MST 6:24 PM MST
Moon 2:07 PM MST (11/12) 1:40 AM MST (11/12)
Length of Visible Light 11h 01m
Length of Day
10h 03m
Waxing Gibbous, 77% of the Moon is Illuminated
Nov 12
Waxing Gibbous
Nov 17
Full
Nov 25
Last Quarter
Dec 2
New
Dec 9
First Quarter

Hourly Weather History & Observations

Time (MST) Temp. Windchill Dew Point Humidity Pressure Visibility Wind Dir Wind Speed Gust Speed Precip Events Conditions
12:15 AM 23.0 °F - 19.4 °F 86% 30.55 in 10.0 mi Calm Calm - N/A   Clear
12:36 AM 21.2 °F - 17.6 °F 86% 30.56 in 10.0 mi Calm Calm - N/A   Clear
12:56 AM 23.0 °F - 19.4 °F 86% 30.56 in 7.0 mi Calm Calm - N/A   Clear
1:16 AM 21.2 °F - 17.6 °F 86% 30.57 in 10.0 mi Calm Calm - N/A   Clear
1:36 AM 23.0 °F - 19.4 °F 86% 30.57 in 10.0 mi Calm Calm - N/A   Clear
1:56 AM 21.2 °F 16.4 °F 17.6 °F 86% 30.57 in 10.0 mi NE 3.5 mph - N/A   Clear
2:16 AM 23.0 °F - 19.4 °F 86% 30.59 in 10.0 mi Calm Calm - N/A   Clear
2:36 AM 21.2 °F - 17.6 °F 86% 30.60 in 10.0 mi Calm Calm - N/A   Clear
2:56 AM 21.2 °F - 17.6 °F 86% 30.60 in 10.0 mi Calm Calm - N/A   Clear
3:16 AM 19.4 °F 14.3 °F 17.6 °F 93% 30.60 in 10.0 mi East 3.5 mph - N/A   Clear
3:36 AM 21.2 °F - 17.6 °F 86% 30.61 in 7.0 mi Calm Calm - N/A   Clear
3:56 AM 19.4 °F 14.3 °F 15.8 °F 86% 30.62 in 10.0 mi West 3.5 mph - N/A   Clear
4:16 AM 19.4 °F 12.8 °F 17.6 °F 93% 30.64 in 10.0 mi ENE 4.6 mph - N/A   Clear
4:36 AM 19.4 °F - 14.0 °F 80% 30.64 in 10.0 mi Calm Calm - N/A   Clear
4:55 AM 19.4 °F - 14.0 °F 80% 30.64 in 10.0 mi Calm Calm - N/A   Clear
5:16 AM 19.4 °F - 17.6 °F 93% 30.65 in 10.0 mi Calm Calm - N/A   Clear
5:36 AM 19.4 °F - 17.6 °F 93% 30.65 in 10.0 mi Calm Calm - N/A   Clear
5:56 AM 19.4 °F - 14.0 °F 80% 30.66 in 10.0 mi Calm Calm - N/A   Clear
6:16 AM 19.4 °F - 14.0 °F 80% 30.66 in 10.0 mi Calm Calm - N/A   Clear
6:36 AM 19.4 °F - 17.6 °F 93% 30.66 in 10.0 mi Calm Calm - N/A   Clear
6:56 AM 17.6 °F - 14.0 °F 86% 30.67 in 10.0 mi Calm Calm - N/A   Clear
7:16 AM 17.6 °F - 14.0 °F 86% 30.67 in 10.0 mi Calm Calm - N/A   Clear
7:36 AM 21.2 °F - 17.6 °F 86% 30.68 in 10.0 mi Calm Calm - N/A   Clear
7:56 AM 23.0 °F - 19.4 °F 86% 30.68 in 10.0 mi Calm Calm - N/A   Clear
8:16 AM 24.8 °F - 21.2 °F 86% 30.69 in 10.0 mi Calm Calm - N/A   Clear
8:36 AM 28.4 °F - 23.0 °F 80% 30.69 in 10.0 mi Calm Calm - N/A   Clear
8:56 AM 30.2 °F 26.7 °F 24.8 °F 80% 30.69 in 10.0 mi WSW 3.5 mph - N/A   Clear
9:16 AM 30.2 °F - 23.0 °F 75% 30.69 in 10.0 mi Calm Calm - N/A   Clear
9:36 AM 32.0 °F - 23.0 °F 69% 30.68 in 10.0 mi Calm Calm - N/A   Clear
9:56 AM 33.8 °F - 21.2 °F 60% 30.67 in 10.0 mi Calm Calm - N/A   Clear
10:16 AM 35.6 °F - 21.2 °F 56% 30.67 in 10.0 mi Calm Calm - N/A   Clear
10:36 AM 37.4 °F - 21.2 °F 52% 30.67 in 10.0 mi Calm Calm - N/A   Clear
10:56 AM 39.2 °F - 21.2 °F 49% 30.66 in 10.0 mi Calm Calm - N/A   Clear
11:16 AM 41.0 °F - 21.2 °F 45% 30.65 in 10.0 mi Calm Calm - N/A   Clear
11:35 AM 42.8 °F - 21.2 °F 42% 30.63 in 10.0 mi Calm Calm - N/A   Clear
11:56 AM 44.6 °F - 21.2 °F 39% 30.62 in 10.0 mi Calm Calm - N/A   Clear
12:16 PM 46.4 °F - 19.4 °F 34% 30.61 in 10.0 mi Calm Calm - N/A   Clear
12:36 PM 50.0 °F - 21.2 °F 32% 30.59 in 10.0 mi WSW 3.5 mph - N/A   Clear
12:56 PM 50.0 °F - 19.4 °F 30% 30.58 in 10.0 mi West 4.6 mph - N/A   Clear
1:16 PM 50.0 °F - 17.6 °F 28% 30.57 in 10.0 mi Calm Calm - N/A   Clear
1:36 PM 51.8 °F - 19.4 °F 28% 30.56 in 10.0 mi Calm Calm - N/A   Clear
1:56 PM 51.8 °F - 17.6 °F 26% 30.56 in 10.0 mi Calm Calm - N/A   Clear
2:16 PM 53.6 °F - 17.6 °F 24% 30.55 in 10.0 mi Calm Calm - N/A   Clear
2:36 PM 53.6 °F - 15.8 °F 22% 30.55 in 10.0 mi Calm Calm - N/A   Clear
2:56 PM 53.6 °F - 15.8 °F 22% 30.54 in 10.0 mi Calm Calm - N/A   Clear
3:16 PM 53.6 °F - 15.8 °F 22% 30.54 in 10.0 mi Calm Calm - N/A   Clear
3:36 PM 53.6 °F - 14.0 °F 21% 30.53 in 10.0 mi Calm Calm - N/A   Clear
3:56 PM 53.6 °F - 14.0 °F 21% 30.52 in 10.0 mi Calm Calm - N/A   Clear
4:16 PM 53.6 °F - 17.6 °F 24% 30.52 in 10.0 mi Calm Calm - N/A   Clear
4:35 PM 50.0 °F - 21.2 °F 32% 30.52 in 10.0 mi West 4.6 mph - N/A   Clear
4:56 PM 42.8 °F 39.3 °F 21.2 °F 42% 30.53 in 10.0 mi West 5.8 mph - N/A   Clear
5:16 PM 39.2 °F - 21.2 °F 49% 30.53 in 10.0 mi Calm Calm - N/A   Clear
5:36 PM 35.6 °F 32.8 °F 21.2 °F 56% 30.54 in 10.0 mi WSW 3.5 mph - N/A   Clear
5:55 PM 35.6 °F - 21.2 °F 56% 30.54 in 10.0 mi Calm Calm - N/A   Clear
6:16 PM 32.0 °F - 21.2 °F 64% 30.55 in 10.0 mi Calm Calm - N/A   Clear
6:36 PM 33.8 °F 30.8 °F 21.2 °F 60% 30.56 in 10.0 mi NE 3.5 mph - N/A   Clear
6:56 PM 32.0 °F - 21.2 °F 64% 30.56 in 10.0 mi Calm Calm - N/A   Clear
7:16 PM 30.2 °F - 21.2 °F 69% 30.57 in 10.0 mi Calm Calm - N/A   Clear
7:36 PM 30.2 °F - 21.2 °F 69% 30.57 in 10.0 mi Calm Calm - N/A   Clear
7:56 PM 28.4 °F - 21.2 °F 74% 30.57 in 10.0 mi Calm Calm - N/A   Clear
8:16 PM 28.4 °F - 21.2 °F 74% 30.57 in 10.0 mi Calm Calm - N/A   Clear
8:35 PM 28.4 °F - 19.4 °F 69% 30.57 in 10.0 mi Calm Calm - N/A   Clear
8:56 PM 28.4 °F 22.2 °F 21.2 °F 74% 30.57 in 10.0 mi North 5.8 mph - N/A   Clear
9:16 PM 26.6 °F - 19.4 °F 74% 30.57 in 10.0 mi Calm Calm - N/A   Clear
9:36 PM 24.8 °F - 19.4 °F 80% 30.57 in 10.0 mi Calm Calm - N/A   Clear
9:56 PM 23.0 °F - 19.4 °F 86% 30.57 in 10.0 mi Calm Calm - N/A   Clear
10:16 PM 23.0 °F - 17.6 °F 80% 30.57 in 10.0 mi Calm Calm - N/A   Clear
10:36 PM 23.0 °F - 17.6 °F 80% 30.57 in 10.0 mi Calm Calm - N/A   Clear
10:56 PM 21.2 °F - 17.6 °F 86% 30.57 in 10.0 mi Calm Calm - N/A   Clear
11:15 PM 21.2 °F - 17.6 °F 86% 30.57 in 10.0 mi Calm Calm - N/A   Clear
11:36 PM 21.2 °F - 17.6 °F 86% 30.57 in 10.0 mi Calm Calm - N/A   Clear
11:56 PM 19.4 °F - 15.8 °F 86% 30.57 in 10.0 mi Calm Calm - N/A   Clear